SKYNET 5C

Last updated on Tue Jun 17 2025 00:02:44 GMT+0000 (Coordinated Universal Time)

1 33055U 08030A 25167.42990282 -.00000128 00000+0 00000+0 0 9994 2 33055 2.8487 81.3966 0005172 2.0081 318.5032 1.00271819 62285
UTC large
Height (km)
Speed (km/s)
/
Latitude / Longitude
Inclination (degrees)
Orbital Period (minutes)
Azimuth
Elevation
Range (km)
Doppler Factor

Next 0 passes for location: London (51.5072 / 0.1276)

Sorry there are no passes over London.